Fort Rucker / Ozark, AL

4:50 AM CDT on June 29, 2017 (GMT -0500)
Fort Rucker / Ozark

Weather History for KLOR - February, 2013

Change the Weather History Date:

Sunday, February 17, 2013

  Actual Average (KOZR) Record (KOZR)
Temperature  
Mean Temperature 39 °F -  
Max Temperature 53 °F 62 °F 78 °F (2000)
Min Temperature 25 °F 41 °F 21 °F (2007)
Degree Days  
Heating Degree Days 26    
Moisture  
Dew Point 19 °F    
Average Humidity 54    
Maximum Humidity 88    
Minimum Humidity 19    
Precipitation  
Precipitation 0.00 in - - ()
Sea Level Pressure  
Sea Level Pressure 30.30 in    
Wind  
Wind Speed 2 mph (NW)    
Max Wind Speed 8 mph    
Max Gust Speed -    
Visibility 10 miles    
Events      
Averages and records for this station are not official NWS values.
T = Trace of Precipitation, MM = Missing Value Source: NWS Daily Summary

Daily Weather History Graph

Daily Weather History Graph

Search for Another Location

Airport or City:

Trip Planner

Search our weather history database for the weather conditions in past years. The results will help you decide how hot, cold, wet, or windy it might be!

Date:

Astronomy

Feb. 17, 2013 Rise Set
Actual Time 6:22 AM CST 5:32 PM CST
Civil Twilight 5:57 AM CST 5:56 PM CST
Nautical Twilight 5:29 AM CST 6:25 PM CST
Astronomical Twilight 5:00 AM CST 6:53 PM CST
Moon 10:44 AM CST (2/17) No Moon Set
Length of Visible Light 11h 59m
Length of Day
11h 09m
Waxing Crescent, 49% of the Moon is Illuminated
Feb 17
Waxing Crescent
Feb 17
First Quarter
Feb 25
Full
Mar 4
Last Quarter
Mar 11
New

Hourly Weather History & Observations

Time (CST) Temp. Windchill Dew Point Humidity Pressure Visibility Wind Dir Wind Speed Gust Speed Precip Events Conditions
12:53 AM 30.9 °F 27.5 °F 21.0 °F 67% 30.26 in 10.0 mi NW 3.5 mph - N/A   Clear
1:53 AM 30.9 °F 26.2 °F 19.9 °F 64% 30.25 in 10.0 mi NW 4.6 mph - N/A   Clear
2:53 AM 30.0 °F 25.2 °F 19.9 °F 66% 30.26 in 10.0 mi NNW 4.6 mph - N/A   Clear
3:53 AM 28.9 °F - 19.9 °F 69% 30.26 in 10.0 mi Calm Calm - N/A   Clear
4:53 AM 27.0 °F - 21.9 °F 81% 30.29 in 10.0 mi Calm Calm - N/A   Clear
5:53 AM 25.0 °F - 21.0 °F 85% 30.32 in 10.0 mi Calm Calm - N/A   Clear
6:53 AM 26.1 °F - 23.0 °F 88% 30.33 in 10.0 mi Calm Calm - N/A   Clear
7:53 AM 33.1 °F - 25.0 °F 72% 30.35 in 10.0 mi Calm Calm - N/A   Partly Cloudy
8:53 AM 39.0 °F - 19.9 °F 46% 30.37 in 10.0 mi Calm Calm - N/A   Clear
9:53 AM 42.1 °F 40.2 °F 12.9 °F 31% 30.38 in 10.0 mi Variable 3.5 mph - N/A   Clear
10:53 AM 46.0 °F 41.9 °F 10.9 °F 24% 30.37 in 10.0 mi NNW 8.1 mph - N/A   Clear
11:53 AM 46.9 °F - 9.0 °F 21% 30.35 in 10.0 mi Calm Calm - N/A   Clear
12:53 PM 48.9 °F - 8.1 °F 19% 30.31 in 10.0 mi WNW 4.6 mph - N/A   Clear
1:53 PM 51.1 °F - 10.0 °F 19% 30.27 in 10.0 mi Variable 5.8 mph - N/A   Clear
2:53 PM 53.1 °F - 12.0 °F 20% 30.27 in 10.0 mi Variable 3.5 mph - N/A   Clear
3:53 PM 53.1 °F - 12.9 °F 20% 30.27 in 10.0 mi WNW 5.8 mph - N/A   Clear
4:53 PM 52.0 °F - 14.0 °F 22% 30.26 in 10.0 mi WNW 4.6 mph - N/A   Clear
5:53 PM 44.1 °F - 21.9 °F 42% 30.27 in 10.0 mi Calm Calm - N/A   Clear
6:53 PM 39.0 °F - 24.1 °F 55% 30.29 in 10.0 mi Calm Calm - N/A   Clear
7:53 PM 36.0 °F - 26.1 °F 67% 30.30 in 10.0 mi Calm Calm - N/A   Clear
8:53 PM 34.0 °F - 26.1 °F 73% 30.31 in 10.0 mi Calm Calm - N/A   Clear
9:53 PM 32.0 °F - 27.0 °F 82% 30.32 in 10.0 mi Calm Calm - N/A   Clear
10:53 PM 32.0 °F - 27.0 °F 82% 30.32 in 10.0 mi Calm Calm - N/A   Clear
11:53 PM 30.9 °F - 27.0 °F 85% 30.32 in 10.0 mi Calm Calm - N/A   Clear